User: anonymous
Location: Goheenville
(40.9070°N, 79.3720°W)
Time: 10:46:32
(UTC-04:00)
Language:

Cosmos 1727 Rocket - Orbit

View from above orbital plane
View from above orbital plane
View from above satellite
View from above satellite

Ground track
Ground track

The orbit data is extracted from the following two-line orbital elements,

1 16511U 86008B   14209.35276181  .00000078  00000-0  65434-4 0  5442
2 16511 082.9448 282.1450 0023586 352.5836 076.6321 13.75766016431239
Epoch (UTC): 28 July 2014 08:27:58
Eccentricity: 0.0023586
inclination: 82.9448°
perigee height: 961 km
apogee height: 996 km
right ascension of ascending node: 282.1450°
argument of perigee: 352.5836°
revolutions per day: 13.75766016
mean anomaly at epoch: 76.6321°
orbit number at epoch: 43123

The dashed part of the orbit path shows where the satellite is in the earth's shadow,  

DLR